This demonstration page uses our WeatherBlox Daily Observations layout. Learn more.

Left ArrowRight Arrow

38.88101, -77.10428

Hourly Observations for December 9, 2019

Temp ( °F °C ) Dew Point ( °F °C ) Humidity (%) Winds ( mph kmh ) Pressure ( in mb ) Visibility ( mi km ) Precip ( " mm )
12:52 am 00:52 Cloudy 45 7.2 41 5 86 86 SSE 3 6 30.27 1025 10 16.0934 0 0
1:52 am 01:52 Cloudy with Drizzle 45 7.2 42 5.6 90 90 Calm 30.24 1024 6 9.65604 0.001 0.001
2:01 am 02:01 Cloudy with Drizzle 45 7.2 42 5.6 90 90 SE 6 9 30.23 1024 6 9.65604 0.001 0.001
2:45 am 02:45 Cloudy 45 7.2 43 6.1 93 93 ESE 7 11 30.2 1023 10 16.0934 0.01 0.254
2:52 am 02:52 Cloudy 45 7.2 43 6.1 93 93 ESE 7 11 30.19 1022 10 16.0934 0.01 0.254
3:12 am 03:12 Cloudy 45 7.2 44 6.7 97 97 WSW 3 6 30.18 1022 10 16.0934 0 0
3:52 am 03:52 Cloudy 45 7.2 44 6.7 97 97 WSW 3 6 30.16 1021 10 16.0934 0 0
4:52 am 04:52 Cloudy 45 7.2 44 6.7 97 97 WSW 5 7 30.15 1021 10 16.0934 0 0
5:52 am 05:52 Cloudy with Drizzle 45 7.2 44 6.7 97 97 S 5 7 30.13 1020 5 8.0467 0.001 0.001
5:55 am 05:55 Cloudy with Drizzle 45 7.2 44 6.7 97 97 S 5 7 30.14 1021 2 3.21868 0.001 0.001
6:29 am 06:29 Cloudy with Mist and Fog 45 7.2 44 6.7 97 97 S 7 11 30.12 1020 4 6.43736 0.001 0.001
6:33 am 06:33 Cloudy with Drizzle 45 7.2 44 6.7 97 97 S 6 9 30.12 1020 2.5 4.02335 0.001 0.001
6:43 am 06:43 Cloudy with Drizzle 45 7.2 44 6.7 97 97 S 6 9 30.12 1020 2 3.21868 0.001 0.001
6:48 am 06:48 Cloudy with Drizzle 45 7 45 7 100 100 S 6 9 30.12 1020 1.5 2.41401 0.001 0.001
6:52 am 06:52 Cloudy with Drizzle 45 7.2 44 6.7 97 97 S 6 9 30.11 1020 1.5 2.41401 0.001 0.001
7:52 am 07:52 Mostly Cloudy with Fog 44 6.7 44 6.7 100 100 S 7 11 30.1 1019 0.75 1.207005 0.001 0.001
8:21 am 08:21 Mostly Cloudy with Fog 44 6.7 44 6.7 100 100 S 6 9 30.1 1019 0.25 0.402335 0 0
8:32 am 08:32 Mostly Cloudy with Fog 44 6.7 44 6.7 100 100 S 7 11 30.09 1019 1 1.60934 0 0
8:52 am 08:52 Mostly Cloudy with Fog 45 7.2 45 7.2 100 100 S 7 11 30.09 1019 0.5 0.80467 0 0
9:07 am 09:07 Cloudy with Mist and Fog 45 7.2 45 7.2 100 100 SSW 6 9 30.1 1019 1 1.60934 0 0
9:17 am 09:17 Cloudy with Mist and Fog 46 7.8 45 7.2 96 96 SSW 7 11 30.11 1020 2 3.21868 0 0
9:31 am 09:31 Cloudy with Mist and Fog 46 7.8 45 7.2 96 96 SSW 10 17 30.11 1020 4 6.43736 0 0
9:52 am 09:52 Cloudy with Light Rain 46 7.8 45 7.2 96 96 SSW 9 15 30.11 1020 7 11.26538 0.001 0.001
10:08 am 10:08 Cloudy with Light Rain 46 7.8 45 7.2 96 96 S 8 13 30.11 1020 5 8.0467 0.001 0.001
10:52 am 10:52 Cloudy with Light Rain 46 7.8 45 7.2 96 96 S 10 17 30.08 1019 3 4.82802 0.06 1.524
11:15 am 11:15 Cloudy with Rain 46 7.8 45 7.2 96 96 S 10 17 30.07 1018 2.5 4.02335 0.03 0.762
11:29 am 11:29 Cloudy with Light Rain 46 7.8 45 7.2 96 96 S 9 15 30.06 1018 3 4.82802 0.04 1.016
11:52 am 11:52 Cloudy with Rain 47 8.3 45 7.2 93 93 S 8 13 30.04 1017 3 4.82802 0.09 2.286
12:14 pm 12:14 Cloudy with Light Rain 47 8.3 45 7.2 93 93 SSW 9 15 30.03 1017 4 6.43736 0.03 0.762
12:22 pm 12:22 Cloudy with Light Rain 47 8.3 45 7.2 93 93 S 10 17 30.02 1017 4 6.43736 0.04 1.016
12:52 pm 12:52 Cloudy with Rain 46 7.8 44 6.7 93 93 S 9 15 29.99 1016 3 4.82802 0.12 3.048
12:55 pm 12:55 Cloudy with Rain 46 7.8 45 7.2 96 96 S 9 15 29.99 1016 2 3.21868 0.01 0.254
1:02 pm 13:02 Cloudy with Heavy Rain 46 7.8 45 7.2 96 96 S 10 17 29.98 1015 1.5 2.41401 0.05 1.27
1:16 pm 13:16 Cloudy with Heavy Rain 46 7.8 45 7.2 96 96 S 9 15 29.98 1015 2 3.21868 0.14 3.556
1:32 pm 13:32 Cloudy with Light Rain 46 7.8 45 7.2 96 96 SSW 8 13 29.97 1015 6 9.65604 0.17 4.318
1:52 pm 13:52 Cloudy with Light Rain 47 8.3 45 7.2 93 93 SSW 12 19 29.96 1014 4 6.43736 0.19 4.826
2:20 pm 14:20 Cloudy with Rain 47 8.3 45 7.2 93 93 S 8 13 29.93 1014 3 4.82802 0.06 1.524
2:39 pm 14:39 Cloudy with Light Rain 46 7.8 45 7.2 96 96 S 10 17 29.92 1013 5 8.0467 0.09 2.286
2:52 pm 14:52 Cloudy with Rain 46 7.8 45 7.2 96 96 S 10 17 29.92 1013 5 8.0467 0.11 2.794
3:00 pm 15:00 Cloudy with Rain 46 7.8 45 7.2 96 96 S 10 17 29.91 1013 3 4.82802 0.02 0.508
3:32 pm 15:32 Cloudy with Light Rain 47 8.3 45 7.2 93 93 SSW 8 13 29.91 1013 2.5 4.02335 0.11 2.794
3:43 pm 15:43 Cloudy with Rain 47 8.3 45 7.2 93 93 S 8 13 29.91 1013 4 6.43736 0.14 3.556
3:52 pm 15:52 Cloudy with Light Rain 47 8.3 45 7.2 93 93 S 10 17 29.9 1013 8 12.87472 0.15 3.81
4:52 pm 16:52 Cloudy 47 8.3 46 7.8 97 97 S 10 17 29.87 1011 10 16.0934 0.001 0.001
5:47 pm 17:47 Cloudy 46 8 46 8 100 100 S 12 19 29.85 1011 10 16.0934 0 0
5:52 pm 17:52 Cloudy 47 8.3 46 7.8 97 97 S 14 22 29.85 1011 10 16.0934 0 0
6:12 pm 18:12 Cloudy with Light Rain 47 8.3 46 7.8 97 97 S 12 19 29.85 1011 10 16.0934 0.001 0.001
6:34 pm 18:34 Cloudy with Light Rain 48 8.9 46 7.8 93 93 SSW 12 19 29.85 1011 10 16.0934 0.001 0.001
6:52 pm 18:52 Cloudy with Light Rain 48 8.9 46 7.8 93 93 SSW 15 24 29.84 1011 10 16.0934 0.001 0.001
7:52 pm 19:52 Cloudy with Light Rain 49 9.4 47 8.3 93 93 SSW 15 24 29.84 1011 10 16.0934 0.001 0.001
8:36 pm 20:36 Cloudy with Light Rain 49 9.4 48 8.9 97 97 S 13 20 29.85 1011 10 16.0934 0.01 0.254
8:52 pm 20:52 Cloudy with Light Rain 50 10 48 8.9 93 93 SSW 16 26 29.83 1010 10 16.0934 0.01 0.254
9:49 pm 21:49 Cloudy with Light Rain 52 11 48 9 88 88 S 17 28 29.83 1010 10 16.0934 0.01 0.254
9:52 pm 21:52 Cloudy with Light Rain 51 10.6 49 9.4 92 92 SSW 18 30 29.83 1010 10 16.0934 0.01 0.254
10:52 pm 22:52 Cloudy 52 11.1 49 9.4 89 89 SSW 14 22 29.83 1010 10 16.0934 0.001 0.001
11:46 pm 23:46 Cloudy 52 11 50 10 94 94 SSW 16 26 29.82 1010 10 16.0934 0 0
11:52 pm 23:52 Cloudy 52 11.1 50 10 93 93 SSW 14 22 29.82 1010 10 16.0934 0 0

Powered by AerisWeather